Gulkana, AK

7:01 PM AKST on February 20, 2018 (GMT -0900)
Gulkana

Weather History for PAGK - April, 2013

Change the Weather History Date:

Friday, April 5, 2013

  Actual Average Record
Temperature  
Mean Temperature 8 °F -  
Max Temperature 27 °F 38 °F 49 °F (1958)
Min Temperature -11 °F 15 °F -11 °F (2013)
Degree Days  
Heating Degree Days 57    
Moisture  
Dew Point -6 °F    
Average Humidity 48    
Maximum Humidity 75    
Minimum Humidity 20    
Precipitation  
Precipitation 0.00 in - - ()
Snow  
Snow 0.00 in - - ()
Snow Depth 6.00 in    
Sea Level Pressure  
Sea Level Pressure 29.72 in    
Wind  
Wind Speed 3 mph (NE)    
Max Wind Speed 8 mph    
Max Gust Speed -    
Visibility 10 miles    
Events      
Averages and records for this station are not official NWS values.
T = Trace of Precipitation, MM = Missing Value Source: NWS Daily Summary

Daily Weather History Graph

Daily Weather History Graph

Search for Another Location

Airport or City:

Trip Planner

Search our weather history database for the weather conditions in past years. The results will help you decide how hot, cold, wet, or windy it might be!

Date:

Astronomy

Apr. 05, 2013 Rise Set
Actual Time 6:48 AM AKDT 8:41 PM AKDT
Civil Twilight 6:01 AM AKDT 9:29 PM AKDT
Nautical Twilight 5:00 AM AKDT 10:30 PM AKDT
Astronomical Twilight 3:41 AM AKDT 11:52 PM AKDT
Moon 5:21 AM AKDT (4/5) 3:02 PM AKDT (4/5)
Length of Visible Light 15h 27m
Length of Day
13h 52m
Waning Crescent, 22% of the Moon is Illuminated
Apr 5
Waning Crescent
Apr 10
New
Apr 18
First Quarter
Apr 25
Full
May 2
Last Quarter

Hourly Weather History & Observations

Time (AKDT) Temp. Windchill Dew Point Humidity Pressure Visibility Wind Dir Wind Speed Gust Speed Precip Events Conditions
12:53 AM 10.0 °F 1.8 °F -4.0 °F 53% 29.88 in 10.0 mi NE 4.6 mph - N/A   Clear
1:53 AM 5.0 °F -2.1 °F -6.0 °F 61% 29.87 in 10.0 mi NE 3.5 mph - N/A   Clear
2:53 AM 1.9 °F -5.6 °F -7.1 °F 66% 29.86 in 10.0 mi ENE 3.5 mph - N/A   Clear
3:53 AM -2.0 °F -10.1 °F -11.0 °F 66% 29.86 in 10.0 mi ENE 3.5 mph - N/A   Clear
4:53 AM -7.1 °F -15.9 °F -14.1 °F 72% 29.85 in 10.0 mi NE 3.5 mph - N/A   Clear
5:53 AM -9.0 °F - -15.0 °F 75% 29.83 in 10.0 mi Calm Calm - N/A   Clear
5:59 AM -9.9 °F - -16.1 °F 74% 29.68 in 10.0 mi Calm Calm - N/A   Partly Cloudy
6:53 AM -11.0 °F - -17.0 °F 75% 29.83 in 10.0 mi Calm Calm - N/A   Partly Cloudy
7:53 AM -8.0 °F - -16.1 °F 68% 29.82 in 10.0 mi Calm Calm - N/A   Partly Cloudy
8:53 AM 3.0 °F - -9.0 °F 57% 29.78 in 10.0 mi Calm Calm - N/A   Partly Cloudy
9:53 AM 6.1 °F - -9.0 °F 50% 29.77 in 10.0 mi Calm Calm - N/A   Clear
10:53 AM 8.1 °F - -7.1 °F 50% 29.75 in 10.0 mi Calm Calm - N/A   Partly Cloudy
11:53 AM 12.0 °F - -6.0 °F 44% 29.73 in 10.0 mi Calm Calm - N/A   Clear
12:53 PM 16.0 °F 10.4 °F -2.9 °F 43% 29.71 in 10.0 mi Variable 3.5 mph - N/A   Clear
1:53 PM 19.0 °F - -4.0 °F 36% 29.70 in 10.0 mi Calm Calm - N/A   Partly Cloudy
2:53 PM 21.0 °F - -2.0 °F 36% 29.68 in 10.0 mi Calm Calm - N/A   Partly Cloudy
3:53 PM 23.0 °F 15.8 °F -0.9 °F 35% 29.66 in 10.0 mi East 5.8 mph - N/A   Partly Cloudy
4:53 PM 23.0 °F - -2.0 °F 34% 29.65 in 10.0 mi Calm Calm - N/A   Clear
5:53 PM 24.1 °F 18.2 °F -0.9 °F 34% 29.63 in 10.0 mi SE 4.6 mph - N/A   Clear
6:53 PM 24.1 °F 19.7 °F -2.0 °F 32% 29.62 in 10.0 mi South 3.5 mph - N/A   Clear
7:53 PM 24.1 °F - -2.9 °F 31% 29.61 in 10.0 mi Calm Calm - N/A   Clear
8:53 PM 18.0 °F 7.7 °F -0.9 °F 44% 29.60 in 10.0 mi NNE 8.1 mph - N/A   Clear
9:26 PM 17.1 °F 6.6 °F -2.0 °F 43% 29.46 in 10.0 mi NNE 8.1 mph - N/A   Clear
9:53 PM 16.0 °F 5.3 °F -2.9 °F 43% 29.60 in 10.0 mi NNE 8.1 mph - N/A   Clear
10:53 PM 12.9 °F 1.6 °F -2.9 °F 49% 29.60 in 10.0 mi NNE 8.1 mph - N/A   Clear
11:53 PM 10.9 °F -0.8 °F -5.1 °F 49% 29.59 in 10.0 mi NNE 8.1 mph - N/A   Clear